Weather observations for the past three days for
Florence Municipal Airport
Metric (Imperial)
Date Time (pdt) Wind (kph) Vis. (km) Weather Sky Cond. Temperature (ºC) Relative Humidity Wind Chill (°C) Heat Index (°C) Pressure Precipitation (cm)
Air Dwpt 6 hour altimeter (cm) sea level (mb) 1 hr 3 hr 6 hr
Max. Min.
10 15:35 NW 26 G 37 16.09 Fair CLR 17 12 73% 76.58 0.0
10 15:15 NW 28 16.09 Fair CLR 17 12 73% 76.58 0.0
10 14:55 N 24 16.09 Fair CLR 17 12 73% 76.61 0.0
10 14:35 NW 26 G 35 16.09 Fair CLR 16 12 77% 76.61 0.0
10 14:15 N 24 G 39 16.09 Fair CLR 16 12 77% 76.61 0.0
10 13:55 NW 24 G 37 16.09 Fair CLR 16 12 77% 76.61 0.0
10 13:35 NW 20 G 37 16.09 Fair CLR 16 12 77% 76.61 0.0
10 13:15 NW 28 G 37 16.09 Fair CLR 16 12 77% 76.58 0.0
10 12:55 NW 20 G 33 16.09 Fair CLR 16 12 77% 76.61 0.0
10 12:35 NW 26 16.09 Fair CLR 16 11 72% 76.58 0.0
10 12:15 NW 22 16.09 Fair CLR 16 11 72% 76.58 0.0
10 11:55 NW 22 16.09 Fair CLR 15 11 77% 76.58 0.0
10 11:35 NW 15 G 28 16.09 Fair CLR 15 11 77% 76.58 0.0
10 11:15 NW 20 G 30 16.09 Fair CLR 15 11 77% 76.58 0.0
10 10:55 NW 22 G 31 16.09 Fair CLR 15 11 77% 76.58 0.0
10 10:35 NW 24 16.09 Fair CLR 15 11 77% 76.58 0.0
10 10:15 NW 20 16.09 Fair CLR 15 11 77% 76.56 0.0
10 09:55 NW 20 16.09 Fair CLR 15 11 77% 76.56 0.0
10 09:35 NW 19 16.09 Fair CLR 14 11 82% 76.53 0.0
10 09:15 NW 15 16.09 Fair CLR 14 11 82% 76.53 0.0
10 08:55 NW 15 16.09 Fair CLR 14 11 82% 76.5 0.0
10 08:35 Vrbl 9 16.09 Fair CLR 14 11 82% 76.5 0.0
10 08:15 NW 13 16.09 Partly Cloudy SCT023 14 11 82% 76.5 0.0
10 07:55 Vrbl 11 16.09 Mostly Cloudy BKN023 13 11 88% 76.5 0.0
10 07:35 Vrbl 9 14.48 Mostly Cloudy BKN023 13 11 88% 76.48 0.0
10 07:15 NW 13 9.66 Fog/Mist FEW022 12 11 94% 76.48 0.0
10 06:55 NW 7 9.66 Fog/Mist CLR 12 11 94% 76.45 0.0
10 06:35 NW 9 8.05 Fog/Mist BKN021 12 11 94% 76.43 0.0
10 06:15 NW 7 16.09 Overcast OVC020 13 10 82% 76.43 0.0
10 05:55 N 7 16.09 Overcast OVC020 13 10 82% 76.4 0.0
10 05:35 N 9 16.09 Overcast OVC019 13 10 82% 76.4 0.0
10 05:15 Vrbl 11 16.09 Overcast OVC018 12 10 88% 76.43 0.0
10 04:55 NW 11 16.09 Overcast OVC017 12 11 94% 76.43 0.0
10 04:35 N 11 16.09 Overcast OVC017 12 11 94% 76.4 0.0
10 04:15 N 6 G 22 16.09 Overcast OVC016 13 11 88% 76.43 0.0
10 03:55 N 19 16.09 Overcast OVC016 12 11 94% 76.43 0.0
10 03:35 NW 13 G 22 16.09 Overcast OVC014 12 11 94% 76.43 0.0
10 03:15 N 11 16.09 Overcast FEW009 OVC013 12 12 100% 76.43 0.0
10 02:55 Vrbl 11 12.87 Overcast OVC011 12 12 100% 76.4 0.0
10 02:35 N 9 G 20 14.48 Overcast OVC010 12 12 100% 76.4 0.0
10 02:15 N 15 12.87 Overcast OVC010 12 12 100% 76.43 0.0
10 01:55 N 15 G 26 14.48 Overcast OVC010 12 11 94% 76.4 0.0
10 01:35 NW 17 16.09 Overcast OVC010 12 11 94% 76.4 0.0
10 01:15 N 13 G 26 16.09 Overcast OVC010 13 11 88% 76.38 0.0
10 00:55 N 15 G 30 16.09 Mostly Cloudy BKN011 13 12 94% 76.4 0.0
10 00:35 N 15 16.09 Partly Cloudy SCT011 12 11 94% 76.38 0.0
10 00:15 NW 15 16.09 Partly Cloudy SCT012 12 11 94% 76.38 0.0
09 23:55 N 17 16.09 Overcast OVC010 13 11 88% 76.38 0.0
09 23:35 NW 13 G 24 16.09 Overcast OVC009 13 11 88% 76.4 0.0
09 23:15 NW 17 16.09 Overcast OVC009 13 12 94% 76.4 0.0
09 22:55 NW 19 G 30 16.09 Overcast OVC009 13 12 94% 76.38 0.0
09 22:35 N 20 G 30 16.09 Overcast OVC009 13 12 94% 76.38 0.0
09 22:15 NW 20 G 31 16.09 Overcast OVC009 13 12 94% 76.38 0.0
09 21:55 NW 22 G 33 16.09 Overcast OVC009 13 12 94% 76.35 0.0
09 21:35 NW 20 G 33 16.09 Overcast OVC010 13 12 94% 76.35 0.0
09 21:15 NW 24 G 35 16.09 Overcast OVC010 13 12 94% 76.33 0.0
09 20:55 NW 22 16.09 Mostly Cloudy BKN009 13 12 94% 76.3 0.0
09 20:35 NW 22 G 35 16.09 Fair CLR 13 13 100% 76.28 0.0
09 20:15 NW 20 G 31 16.09 Fair CLR 13 13 100% 76.25 0.0
09 19:55 NW 20 16.09 Fair CLR 14 13 94% 76.23 0.0
09 19:35 NW 26 G 35 16.09 Fair CLR 14 13 94% 76.23 0.0
09 19:15 NW 24 G 33 16.09 Fair CLR 14 13 94% 76.23 0.0
09 18:55 NW 20 16.09 Fair CLR 15 13 88% 76.23 0.0
09 18:35 NW 20 G 33 16.09 Fair CLR 15 13 88% 76.25 0.0
09 18:15 NW 22 G 35 16.09 Fair CLR 15 13 88% 76.25 0.0
09 17:55 NW 24 G 35 16.09 Fair CLR 15 13 88% 76.25 0.0
09 17:35 N 20 G 41 16.09 Fair CLR 16 13 83% 76.23 0.0
09 17:15 N 22 G 35 16.09 Fair CLR 17 12 73% 76.23 0.0
09 16:55 N 24 G 37 16.09 Fair CLR 16 13 83% 76.23 0.0
09 16:35 NW 24 G 35 16.09 Fair CLR 16 13 83% 76.25 0.0
09 16:15 NW 24 G 35 16.09 Fair CLR 17 12 73% 76.23 0.0
09 15:55 NW 20 G 35 16.09 Fair CLR 18 12 68% 76.25 0.0
09 15:35 NW 31 16.09 Fair CLR 18 12 68% 76.25 0.0
09 15:15 NW 28 G 39 16.09 Fair CLR 18 12 68% 76.25 0.0
09 14:55 N 30 G 43 16.09 Fair CLR 18 12 68% 76.28 0.0
09 14:35 NW 26 G 35 16.09 Fair CLR 18 12 68% 76.3 0.0
09 14:15 N 28 16.09 Fair CLR 18 12 68% 76.3 0.0
09 13:55 N 28 G 41 16.09 Fair CLR 18 12 68% 76.33 0.0
09 13:35 NW 28 G 37 16.09 Fair CLR 18 12 68% 76.33 0.0
09 13:15 NW 26 G 35 16.09 Fair CLR 17 12 73% 76.35 0.0
09 12:55 N 30 16.09 Fair CLR 17 12 73% 76.35 0.0
09 12:35 NW 20 G 31 16.09 Fair CLR 18 12 68% 76.38 0.0
09 12:15 NW 19 16.09 Fair CLR 17 12 73% 76.38 0.0
09 11:55 NW 19 16.09 Fair CLR 18 12 68% 76.4 0.0
09 11:35 NW 17 16.09 Fair CLR 18 12 68% 76.4 0.0
09 11:15 NW 13 16.09 Fair CLR 17 12 73% 76.4 0.0
09 10:55 NW 17 16.09 Fair CLR 16 11 72% 76.43 0.0
09 10:35 NW 15 16.09 Fair CLR 16 11 72% 76.4 0.0
09 10:15 NW 15 16.09 Fair CLR 15 11 77% 76.43 0.0
09 09:55 Vrbl 11 G 20 16.09 Fair CLR 17 11 68% 76.43 0.0
09 09:35 Vrbl 9 16.09 Fair CLR 16 12 77% 76.43 0.0
09 09:15 Vrbl 7 16.09 Fair CLR 16 12 77% 76.43 0.0
09 08:55 Vrbl 6 14.48 Fair CLR 15 11 77% 76.43 0.0
09 08:35 Calm 16.09 Fair CLR 13 11 88% 76.45 0.0
09 08:15 S 9 16.09 Fair CLR 13 11 88% 76.48 0.0
09 07:55 Calm 16.09 Fair CLR 11 11 100% 76.48 0.0
09 07:35 Calm 16.09 Fair CLR 10 10 100% 76.48 0.0
09 07:15 Calm 16.09 Fair CLR 9 9 100% 76.5 0.0
09 06:55 Calm 14.48 Fair CLR 8 8 100% 76.48 0.0
09 06:35 Calm 16.09 Fair CLR 8 8 100% 76.48 0.0
09 06:15 Calm 14.48 Fair CLR 7 7 100% 76.45 0.0
09 05:55 Calm 16.09 Fair CLR 7 7 100% 76.48 0.0
09 05:35 Calm 16.09 Fair CLR 7 7 100% 76.48 0.0
09 05:15 Calm 16.09 Fair CLR 7 7 100% 76.5 0.0
09 04:55 Calm 16.09 Fair CLR 7 7 100% 76.53 0.0
09 04:35 Calm 16.09 Fair CLR 7 7 100% 76.53 0.0
09 04:15 Calm 16.09 Fair CLR 7 7 100% 76.56 0.0
09 03:55 Calm 16.09 Fair CLR 8 8 100% 76.56 0.0
09 03:35 Calm 16.09 Fair CLR 8 8 100% 76.56 0.0
09 03:15 Calm 16.09 Fair CLR 8 8 100% 76.56 0.0
09 02:55 Calm 14.48 Fair CLR 8 8 100% 76.58 0.0
09 02:35 Calm 16.09 Fair CLR 8 8 100% 76.58 0.0
09 02:15 Calm 16.09 Fair CLR 8 8 100% 76.58 0.0
09 01:55 Calm 16.09 Fair CLR 9 9 100% 76.58 0.0
09 01:35 Calm 16.09 Fair CLR 9 9 100% 76.61 0.0
09 01:15 Calm 16.09 Fair CLR 9 9 100% 76.63 0.0
09 00:55 Calm 16.09 Fair CLR 9 9 100% 76.63 0.0
09 00:35 Calm 16.09 Fair CLR 9 9 100% 76.63 0.0
09 00:15 Calm 16.09 Fair CLR 9 9 100% 76.63 0.0
08 23:55 Calm 16.09 Fair CLR 10 10 100% 76.66 0.0
08 23:35 Calm 16.09 Fair CLR 10 10 100% 76.66 0.0
08 23:15 Calm 16.09 Fair CLR 10 10 100% 76.68 0.0
08 22:55 Calm 16.09 Fair CLR 11 10 94% 76.68 0.0
08 22:35 Calm 14.48 Fair CLR 11 10 94% 76.68 0.0
08 22:15 Calm 16.09 Fair CLR 12 11 94% 76.68 0.0
08 21:55 Calm 16.09 Fair CLR 12 11 94% 76.71 0.0
08 21:35 NW 7 16.09 Fair CLR 12 11 94% 76.71 0.0
08 21:15 NW 11 16.09 Fair CLR 12 11 94% 76.68 0.0
08 20:55 NW 9 16.09 Fair CLR 12 11 94% 76.66 0.0
08 20:35 NW 11 16.09 Fair CLR 13 11 88% 76.68 0.0
08 20:15 NW 11 16.09 Fair CLR 13 11 88% 76.68 0.0
08 19:55 NW 13 16.09 Fair CLR 13 11 88% 76.68 0.0
08 19:35 NW 13 16.09 Fair CLR 14 10 77% 76.68 0.0
08 19:15 NW 13 16.09 Fair CLR 14 10 77% 76.68 0.0
08 18:55 NW 15 16.09 Fair CLR 14 10 77% 76.66 0.0
08 18:35 NW 15 16.09 Fair CLR 14 10 77% 76.66 0.0
08 18:15 NW 13 16.09 Fair CLR 14 10 77% 76.68 0.0
08 17:55 NW 15 16.09 Fair CLR 14 10 77% 76.71 0.0
08 17:35 NW 15 16.09 Fair CLR 14 10 77% 76.71 0.0
08 17:15 NW 15 16.09 Fair CLR 14 10 77% 76.71 0.0
08 16:55 NW 15 16.09 Fair CLR 14 10 77% 76.73 0.0
08 16:35 W 17 16.09 Fair CLR 14 9 72% 76.73 0.0
08 16:15 NW 15 16.09 Fair CLR 15 10 72% 76.73 0.0
08 15:55 NW 15 16.09 Fair CLR 14 9 72% 76.73 0.0
08 15:35 NW 15 16.09 Fair CLR 15 9 68% 76.73 0.0
08 15:15 NW 15 16.09 Fair CLR 14 9 72% 76.73 0.0
08 14:55 W 13 16.09 Fair CLR 14 8 67% 76.73 0.0
08 14:35 NW 17 16.09 Fair CLR 15 9 68% 76.73 0.0
08 14:15 W 15 16.09 Fair CLR 14 8 67% 76.73 0.0
08 13:55 W 15 16.09 Fair CLR 14 8 67% 76.73 0.0
08 13:35 W 15 16.09 Fair CLR 14 8 67% 76.73 0.0
08 13:15 SW 13 16.09 Fair CLR 14 8 67% 76.73 0.0
08 12:55 W 15 16.09 Fair CLR 14 8 67% 76.71 0.0
08 12:35 W 13 16.09 A Few Clouds FEW024 14 8 67% 76.73 0.0
08 12:15 W 11 16.09 Mostly Cloudy BKN025 14 8 67% 76.73 0.0
08 11:55 Vrbl 7 16.09 Overcast OVC026 14 8 67% 76.73 0.0
08 11:35 SW 7 16.09 Overcast OVC024 13 8 72% 76.76 0.0
08 11:15 SW 7 16.09 Overcast OVC023 13 8 72% 76.76 0.0
08 10:55 W 9 G 19 16.09 Overcast OVC023 13 8 72% 76.76 0.0
08 10:35 Vrbl 9 16.09 Overcast OVC025 13 8 72% 76.73 0.0
08 10:15 S 15 16.09 Overcast OVC025 13 8 72% 76.73 0.0
08 09:55 Vrbl 9 16.09 Overcast OVC024 13 8 72% 76.71 0.0
08 09:35 S 15 16.09 Overcast OVC025 12 8 77% 76.71 0.0
08 09:15 S 9 16.09 Overcast OVC026 12 8 77% 76.68 0.0
08 08:55 Vrbl 9 16.09 Overcast OVC027 12 8 77% 76.68 0.0
08 08:35 Calm 16.09 Overcast OVC026 12 8 77% 76.68 0.0
08 08:15 Calm 16.09 Overcast OVC026 12 7 72% 76.68 0.0
08 07:55 Calm 16.09 Overcast OVC026 12 8 77% 76.63 0.0
08 07:35 SW 7 16.09 Overcast OVC025 12 7 72% 76.63 0.0
08 07:15 Calm 16.09 Overcast OVC026 12 7 72% 76.61 0.0
08 06:55 S 6 16.09 Overcast OVC025 12 8 77% 76.61 0.0
08 06:35 Calm 16.09 Overcast OVC025 11 7 77% 76.58 0.0
08 06:15 Calm 16.09 Overcast OVC026 12 7 72% 76.58 0.0
08 05:55 Vrbl 7 16.09 Overcast OVC025 12 7 72% 76.58 0.0
08 05:35 Calm 16.09 Overcast OVC025 12 7 72% 76.61 0.0
08 05:15 W 7 16.09 Overcast OVC025 12 7 72% 76.61 0.0
08 04:55 Calm 16.09 Overcast BKN023 OVC028 12 7 72% 76.58 0.0
08 04:35 SW 6 16.09 Overcast OVC023 12 8 77% 76.58 0.0
08 04:15 Vrbl 7 16.09 Overcast OVC023 12 8 77% 76.56 0.0
08 03:55 Calm 16.09 Overcast OVC023 11 8 82% 76.53 0.0
08 03:35 Calm 16.09 Overcast OVC022 11 8 82% 76.56 0.0
08 03:15 Calm 16.09 Overcast OVC021 11 8 82% 76.53 0.0
08 02:55 Vrbl 6 16.09 Overcast OVC021 11 8 82% 76.53 0.0
08 02:35 Calm 16.09 Overcast OVC020 11 8 82% 76.53 0.0
08 02:15 Calm 16.09 Overcast OVC020 11 8 82% 76.5 0.0
08 01:55 Calm 16.09 Overcast OVC020 11 8 82% 76.5 0.0
08 01:35 Calm 16.09 Overcast OVC019 11 8 82% 76.48 0.0
08 01:15 Calm 16.09 Overcast OVC019 12 8 77% 76.48 0.0
08 00:55 Calm 16.09 Overcast OVC019 11 9 88% 76.48 0.0
08 00:35 Calm 14.48 Overcast OVC019 11 9 88% 76.48 0.0
08 00:15 Calm 14.48 Overcast OVC017 10 9 94% 76.48 0.0
07 23:55 Calm 12.87 Overcast OVC017 10 9 94% 76.48 0.0
07 23:35 Calm 12.87 Overcast OVC017 9 9 100% 76.48 0.0
07 23:15 Calm 14.48 Mostly Cloudy BKN016 9 9 100% 76.45 0.0
07 22:55 Calm 12.87 Partly Cloudy FEW002 SCT015 9 9 100% 76.45 0.0
07 22:35 Calm 14.48 Partly Cloudy FEW002 SCT015 10 9 94% 76.45 0.0
07 22:15 Calm 14.48 A Few Clouds FEW015 11 9 88% 76.45 0.0
07 21:55 Calm 14.48 Fair CLR 11 9 88% 76.43 0.0
07 21:35 Calm 16.09 Fair CLR 11 9 88% 76.43 0.0
07 21:15 NW 7 16.09 A Few Clouds FEW015 11 9 88% 76.43 0.0
07 20:55 NW 9 16.09 A Few Clouds FEW016 11 9 88% 76.43 0.0
07 20:35 NW 9 14.48 Fair CLR 12 9 82% 76.43 0.0
07 20:15 NW 9 16.09 Fair CLR 12 9 82% 76.4 0.0
07 19:55 NW 11 16.09 Fair CLR 12 10 88% 76.38 0.0
07 19:35 NW 13 G 24 16.09 Fair CLR 13 10 82% 76.38 0.0
07 19:15 NW 19 16.09 Fair CLR 13 9 77% 76.38 0.0
07 18:55 NW 15 16.09 Fair CLR 13 9 77% 76.38 0.0
07 18:35 NW 19 16.09 Fair CLR 14 9 72% 76.38 0.0
07 18:15 NW 19 16.09 Fair CLR 14 9 72% 76.38 0.0
07 17:55 NW 17 16.09 Fair CLR 14 9 72% 76.4 0.0
07 17:35 NW 22 G 33 16.09 Fair CLR 14 9 72% 76.4 0.0
07 17:15 N 20 G 33 16.09 Fair CLR 14 9 72% 76.4 0.0
07 16:55 NW 20 G 35 16.09 Fair CLR 14 9 72% 76.4 0.0
07 16:35 NW 20 G 31 16.09 Fair CLR 15 9 68% 76.4 0.0
07 16:15 NW 22 16.09 Fair CLR 15 9 68% 76.43 0.0
07 15:55 NW 20 G 30 16.09 Fair CLR 15 9 68% 76.43 0.0
Date Time (pdt) Wind (kph) Vis. (km) Weather Sky Cond. Air Dwpt Max. Min. Relative Humidity Wind Chill (°C) Heat Index (°C) altimeter (cm) sea level (mb) 1 hr 3 hr 6 hr
6 hour
Temperature (ºC) Pressure Precipitation (cm)